Tracking 31027 objects as of 19-Jul-2025
HD Live streaming from Space Station
objects crossing your sky now

DELTA 1 DEB

Track DELTA 1 DEB now!
10-day predictions


NORAD ID: 39100
Int'l Code: 1977-065GK
Perigee: 451.1 km
Apogee: 962.3 km
Inclination: 29.3 °
Period: 98.8 minutes
Semi major axis: 7077 km
RCS: 0.0007 m2 (small)
Launch date: July 14, 1977
Source: United States (US)
Launch site: AIR FORCE EASTERN TEST RANGE (AFETR)

Note: This is SATELLITE DEBRIS
Your satellite tracking list
SL-14 DEB
Track 1 satellite(s)




NASA's NSSDC Master Catalog

Two Line Element Set (TLE):
1 39100U 77065GM  25199.61656159  .00004295  00000-0  35064-3 0  9994
2 39100  29.2763 312.4847 0361145  17.1947 344.0535 14.58027628190908
Source of the keplerian elements: AFSPC